Regional Weather Roundup
Issued by NWS

Home | Current Version | Previous Version | Graphics & Text | Print | Product List | Glossary On
Versions: 1 2 3 4 5 6 7 8 9 10 11 12 13 14 15 16 17 18 19 20 21 22 23 24 25 26 27 28 29 30 31 32 33 34 35 36 37 38 39 40 41 42 43 44 45 46 47 48 49 50
000
ASUS45 KSLC 241310
RWRUT

UTAH REGIONAL WEATHER ROUNDUP
NATIONAL WEATHER SERVICE SALT LAKE CITY UT
700 AM MDT THU JUL 24 2014

UTZ001>011-023>025-241400-

NORTHERN UTAH

CITY           SKY/WX    TMP DP  RH WIND       PRES   REMARKS
HILL AFB       MOCLDY    76  42  30 NW2       30.06R
LOGAN          NOT AVBL
OGDEN          PTCLDY    73  43  33 W5        30.03R
PROVO AIRPORT  MOCLDY    73  54  49 S9        30.08R
SALT LAKE CITY CLOUDY    81  50  33 W12       30.01S
VERNAL         LGT RAIN  76  48  37 W9G21     30.18R
WENDOVER       PTCLDY    79  28  15 N7        30.04R
HEBER CITY     CLOUDY    68  46  45 NW5       30.16R
WEST JORDAN    CLEAR     82  52  34 SE12      30.05F

$$

UTZ012>022-026-027-241400-

SOUTHERN UTAH

CITY           SKY/WX    TMP DP  RH WIND       PRES   REMARKS
BRYCE CANYON   MOCLDY    57  44  62 CALM      30.39R
CEDAR CITY     PTCLDY    69  33  26 CALM      30.17S
MILFORD        PTCLDY    72  37  28 S10       30.10R
MOAB/CYNLANDS  CLEAR     82  48  30 E5        30.13R
PRICE          MOCLDY    72  50  45 E8        30.26R
ST GEORGE      CLOUDY    88  37  16 SE12      29.98R
KANAB            N/A     72  39  30 N3        30.20R

$$

REGIONAL REPORTS     COLORADO/ARIZONA

CITY           SKY/WX    TMP DP  RH WIND       PRES   REMARKS
CRAIG, CO      PTCLDY    55  50  83 SE3       30.27R
GRAND JUNCTION MOCLDY    79  49  34 S15       30.18R
RIFLE          PTCLDY    68  45  43 S3        30.25R
MONTROSE       TSTM      65  58  78 SE8       30.31S
CORTEZ         CLEAR     69  50  50 CALM      30.31R
PAGE, AZ       CLOUDY    85  50  29 CALM      30.13R
GRAND CANYON   CLOUDY    64  50  60 NE3       30.33S SMOKE
KINGMAN        PTCLDY    83  29  14 CALM      30.03R
FLAGSTAFF      CLOUDY    63  50  62 CALM      30.37S

$$

REGIONAL REPORTS    NEVADA/IDAHO/WYOMING

CITY           SKY/WX    TMP DP  RH WIND       PRES   REMARKS
LAS VEGAS, NV  PTCLDY    88  29  12 S13       29.84R
ELY            MOCLDY    54  25  32 S12       30.19S
ELKO           CLEAR     56  29  35 W5        30.15R
POCATELLO, ID  PTCLDY    65  37  35 SW18      30.09R
BURLEY         CLEAR     61  44  53 SW13      30.11R
EVANSTON, WY   PTCLDY    71  39  31 S22G31    30.23S
ROCK SPRINGS   CLOUDY    74  40  29 S24G41    30.21S

$$



USA.gov is the U.S. government's official web portal to all federal, state and local government web resources and services.